Willard, MO

10:29 AM CST on December 10, 2016 (GMT -0600)
Springfield-Branson Regional

Weather History for KSGF - September, 2012

Change the Weather History Date:

Tuesday, September 25, 2012

  Actual Average Record
Temperature  
Mean Temperature 75 °F 65 °F  
Max Temperature 86 °F 76 °F 95 °F (1939)
Min Temperature 64 °F 54 °F 36 °F (1989)
Degree Days  
Heating Degree Days 0 3  
Month to date heating degree days 39 32  
Since 1 July heating degree days 39 34  
Cooling Degree Days 10 3  
Month to date cooling degree days 141 158  
Year to date cooling degree days 1731 1344  
Growing Degree Days 25 (Base 50)    
Moisture  
Dew Point 58 °F    
Average Humidity 62    
Maximum Humidity 84    
Minimum Humidity 40    
Precipitation  
Precipitation 0.00 in 0.16 in 3.27 in (1993)
Month to date precipitation 4.33 3.87  
Year to date precipitation 23.74 33.98  
Snow  
Snow 0.00 in - - ()
Month to date snowfall 0.0  
Since 1 July snowfall 0.0  
Since 1 September snowfall 0.0  
Snow Depth 0.00 in    
Sea Level Pressure  
Sea Level Pressure 29.87 in    
Wind  
Wind Speed 13 mph (SSW)    
Max Wind Speed 28 mph    
Max Gust Speed 35 mph    
Visibility 10 miles    
Events      
T = Trace of Precipitation, MM = Missing Value Source: NWS Daily Summary

Daily Weather History Graph

Daily Weather History Graph

Search for Another Location

Airport or City:

Trip Planner

Search our weather history database for the weather conditions in past years. The results will help you decide how hot, cold, wet, or windy it might be!

Date:

Astronomy

Sep. 25, 2012 Rise Set
Actual Time 7:04 AM CDT 7:05 PM CDT
Civil Twilight 6:38 AM CDT 7:31 PM CDT
Nautical Twilight 6:08 AM CDT 8:01 PM CDT
Astronomical Twilight 5:37 AM CDT 8:31 PM CDT
Moon 4:25 PM CDT (9/25) 2:31 AM CDT (9/25)
Length of Visible Light 12h 52m
Length of Day
12h 00m
Waxing Gibbous, 80% of the Moon is Illuminated
Sep 25
Waxing Gibbous
Sep 29
Full
Oct 8
Last Quarter
Oct 15
New
Oct 21
First Quarter

Hourly Weather History & Observations

Time (CDT) Temp. Heat Index Dew Point Humidity Pressure Visibility Wind Dir Wind Speed Gust Speed Precip Events Conditions
12:52 AM 66.2 °F - 55.4 °F 68% 29.92 in 10.0 mi South 11.5 mph - N/A   Clear
1:52 AM 66.0 °F - 57.0 °F 73% 29.89 in 10.0 mi SSE 11.5 mph - N/A   Clear
2:52 AM 64.9 °F - 57.0 °F 75% 29.88 in 10.0 mi SSE 12.7 mph - N/A   Clear
3:52 AM 64.9 °F - 57.9 °F 78% 29.87 in 10.0 mi South 11.5 mph - N/A   Clear
4:52 AM 64.0 °F - 59.0 °F 84% 29.86 in 10.0 mi South 10.4 mph - N/A   Clear
5:52 AM 64.9 °F - 59.0 °F 81% 29.86 in 10.0 mi South 10.4 mph - N/A   Clear
6:52 AM 66.0 °F - 59.0 °F 78% 29.87 in 10.0 mi South 12.7 mph - N/A   Clear
7:52 AM 72.0 °F - 60.1 °F 66% 29.88 in 10.0 mi SSW 15.0 mph - N/A   Clear
8:52 AM 73.9 °F - 61.0 °F 64% 29.89 in 10.0 mi SSW 17.3 mph 26.5 mph N/A   Clear
9:52 AM 77.0 °F - 62.1 °F 60% 29.89 in 10.0 mi SW 17.3 mph 26.5 mph N/A   Clear
10:52 AM 79.0 °F - 62.1 °F 56% 29.89 in 10.0 mi SW 18.4 mph 27.6 mph N/A   Partly Cloudy
11:52 AM 80.1 °F 81.1 °F 61.0 °F 52% 29.88 in 10.0 mi SW 18.4 mph 31.1 mph N/A   Scattered Clouds
12:52 PM 82.9 °F 83.7 °F 62.1 °F 49% 29.87 in 10.0 mi SW 12.7 mph 25.3 mph N/A   Scattered Clouds
1:52 PM 82.4 °F 82.9 °F 60.8 °F 48% 29.89 in 10.0 mi SW 11.5 mph 21.9 mph N/A   Partly Cloudy
2:52 PM 84.9 °F 85.0 °F 61.0 °F 44% 29.83 in 10.0 mi SSW 17.3 mph - N/A   Clear
3:52 PM 86.0 °F 85.4 °F 59.0 °F 40% 29.83 in 10.0 mi SW 16.1 mph 24.2 mph N/A   Clear
4:52 PM 84.9 °F 84.4 °F 59.0 °F 41% 29.82 in 10.0 mi SSW 18.4 mph 25.3 mph N/A   Clear
5:52 PM 82.9 °F 82.8 °F 59.0 °F 44% 29.83 in 10.0 mi SSW 9.2 mph - N/A   Clear
6:52 PM 78.1 °F - 57.0 °F 48% 29.82 in 10.0 mi South 9.2 mph - N/A   Clear
7:52 PM 73.9 °F - 57.0 °F 55% 29.82 in 10.0 mi South 5.8 mph - N/A   Clear
8:52 PM 73.4 °F - 55.4 °F 53% 29.87 in 10.0 mi South 10.4 mph - N/A   Clear
9:52 PM 75.0 °F - 55.0 °F 50% 29.86 in 10.0 mi South 15.0 mph - N/A   Clear
10:52 PM 77.0 °F - 55.9 °F 48% 29.95 in 10.0 mi WNW 16.1 mph 28.8 mph N/A   Mostly Cloudy
10:59 PM 75.2 °F - 55.4 °F 50% 29.99 in 10.0 mi WNW 12.7 mph 23.0 mph N/A   Overcast
11:52 PM 70.0 °F - 54.0 °F 57% 29.93 in 10.0 mi North 4.6 mph - N/A   Scattered Clouds